11.05.2024;19:00;9
11.05.2024;18:00;10
11.05.2024;17:00;11
11.05.2024;16:00;9
11.05.2024;15:00;10
11.05.2024;14:00;10
11.05.2024;13:00;10
11.05.2024;12:00;13
11.05.2024;11:00;13
11.05.2024;10:00;14
11.05.2024;09:00;16
11.05.2024;08:00;20
11.05.2024;07:00;31
11.05.2024;06:00;24
11.05.2024;05:00;24
11.05.2024;04:00;23
11.05.2024;03:00;36
11.05.2024;02:00;40
11.05.2024;01:00;50
11.05.2024;00:00;48
10.05.2024;23:00;77
10.05.2024;22:00;78
10.05.2024;21:00;31
10.05.2024;20:00;16
10.05.2024;19:00;18
10.05.2024;18:00;15
10.05.2024;17:00;11
10.05.2024;16:00;11
10.05.2024;15:00;13
10.05.2024;14:00;14
10.05.2024;13:00;16
10.05.2024;12:00;20
10.05.2024;11:00;26
10.05.2024;10:00;24
10.05.2024;09:00;28
10.05.2024;08:00;32
10.05.2024;07:00;30
10.05.2024;06:00;28
10.05.2024;05:00;25
10.05.2024;04:00;24
10.05.2024;03:00;26
10.05.2024;02:00;37
10.05.2024;01:00;34
10.05.2024;00:00;44
09.05.2024;23:00;65
09.05.2024;22:00;38
09.05.2024;21:00;24
09.05.2024;20:00;14
